Time,TemperatureF,DewpointF,PressureIn,WindDirection,WindDirectionDegrees,WindSpeedMPH,WindSpeedGustMPH,Humidity,HourlyPrecipIn,Conditions,Clouds,dailyrainin,SoftwareType,DateUTC
2013-07-18 00:11:00,78.2,75.0,30.09,SSW,207,2.0,4.0,90,0.00,,,0.00,weatherlink.com 1.10,2013-07-18 04:11:00,
2013-07-18 00:26:00,78.1,75.0,30.08,SW,225,2.0,2.0,90,0.00,,,0.00,weatherlink.com 1.10,2013-07-18 04:26:00,
2013-07-18 00:41:00,77.9,75.0,30.08,WSW,243,3.0,3.0,90,0.00,,,0.00,weatherlink.com 1.10,2013-07-18 04:41:00,
2013-07-18 00:56:00,77.9,75.0,30.08,SSW,212,2.0,4.0,90,0.00,,,0.00,weatherlink.com 1.10,2013-07-18 04:56:00,
2013-07-18 01:11:00,77.2,74.0,30.08,SW,226,2.0,5.0,90,0.00,,,0.00,weatherlink.com 1.10,2013-07-18 05:11:00,
2013-07-18 01:26:00,76.8,74.0,30.08,SSW,205,0.0,3.0,91,0.00,,,0.00,weatherlink.com 1.10,2013-07-18 05:26:00,
2013-07-18 01:41:00,76.5,74.0,30.08,SW,235,1.0,3.0,91,0.00,,,0.00,weatherlink.com 1.10,2013-07-18 05:41:00,
2013-07-18 01:56:00,76.1,74.0,30.07,SSW,205,0.0,4.0,92,0.00,,,0.00,weatherlink.com 1.10,2013-07-18 05:56:00,
2013-07-18 02:11:00,75.8,74.0,30.07,South,190,0.0,1.0,93,0.00,,,0.00,weatherlink.com 1.10,2013-07-18 06:11:00,
2013-07-18 02:41:00,75.5,73.0,30.07,WSW,243,1.0,2.0,93,0.00,,,0.00,weatherlink.com 1.10,2013-07-18 06:41:00,
2013-07-18 02:56:00,75.3,73.0,30.07,South,188,0.0,2.0,93,0.00,,,0.00,weatherlink.com 1.10,2013-07-18 06:56:00,
2013-07-18 03:11:00,75.3,74.0,30.07,SSW,198,2.0,4.0,94,0.00,,,0.00,weatherlink.com 1.10,2013-07-18 07:11:00,
2013-07-18 03:26:00,75.3,74.0,30.07,SSW,203,3.0,3.0,94,0.00,,,0.00,weatherlink.com 1.10,2013-07-18 07:26:00,
2013-07-18 03:41:00,75.4,74.0,30.06,SSW,208,3.0,5.0,94,0.00,,,0.00,weatherlink.com 1.10,2013-07-18 07:41:00,
2013-07-18 03:56:00,75.3,74.0,30.06,SSW,200,1.0,3.0,94,0.00,,,0.00,weatherlink.com 1.10,2013-07-18 07:56:00,
2013-07-18 04:11:00,75.3,74.0,30.06,WSW,253,1.0,2.0,94,0.00,,,0.00,weatherlink.com 1.10,2013-07-18 08:11:00,
2013-07-18 04:26:00,75.2,73.0,30.06,SSW,208,0.0,0.0,94,0.00,,,0.00,weatherlink.com 1.10,2013-07-18 08:26:00,
2013-07-18 04:41:00,75.2,73.0,30.06,SSW,200,1.0,3.0,94,0.00,,,0.00,weatherlink.com 1.10,2013-07-18 08:41:00,
2013-07-18 04:56:00,75.2,73.0,30.06,SSW,205,2.0,3.0,94,0.00,,,0.00,weatherlink.com 1.10,2013-07-18 08:56:00,
2013-07-18 05:11:00,75.3,74.0,30.06,SSW,198,0.0,4.0,94,0.00,,,0.00,weatherlink.com 1.10,2013-07-18 09:11:00,
2013-07-18 05:26:00,75.4,74.0,30.06,SSE,164,2.0,6.0,95,0.00,,,0.00,weatherlink.com 1.10,2013-07-18 09:26:00,
2013-07-18 05:41:00,75.4,74.0,30.06,SSE,160,1.0,5.0,95,0.00,,,0.00,weatherlink.com 1.10,2013-07-18 09:41:00,
2013-07-18 05:58:00,75.4,74.0,30.06,South,183,0.0,3.0,95,0.00,,,0.00,weatherlink.com 1.10,2013-07-18 09:58:00,
2013-07-18 06:11:00,75.6,74.0,30.06,SSW,195,3.0,4.0,95,0.00,,,0.00,weatherlink.com 1.10,2013-07-18 10:11:00,
2013-07-18 06:28:00,75.7,74.0,30.06,SW,214,1.0,3.0,95,0.00,,,0.00,weatherlink.com 1.10,2013-07-18 10:28:00,
2013-07-18 06:43:00,76.0,75.0,30.06,SSE,149,2.0,5.0,95,0.00,,,0.00,weatherlink.com 1.10,2013-07-18 10:43:00,
2013-07-18 06:57:00,76.4,75.0,30.07,SSE,157,3.0,6.0,95,0.00,,,0.00,weatherlink.com 1.10,2013-07-18 10:57:00,
2013-07-18 07:12:00,76.9,75.0,30.07,SW,215,5.0,9.0,95,0.00,,,0.00,weatherlink.com 1.10,2013-07-18 11:12:00,
2013-07-18 07:27:00,77.2,76.0,30.07,SSW,198,3.0,7.0,95,0.00,,,0.00,weatherlink.com 1.10,2013-07-18 11:27:00,
2013-07-18 07:42:00,77.4,76.0,30.07,SE,128,2.0,5.0,94,0.00,,,0.00,weatherlink.com 1.10,2013-07-18 11:42:00,
2013-07-18 07:57:00,78.5,77.0,30.07,WSW,257,6.0,6.0,94,0.00,,,0.00,weatherlink.com 1.10,2013-07-18 11:57:00,
2013-07-18 08:12:00,79.4,77.0,30.07,SW,233,5.0,9.0,92,0.00,,,0.00,weatherlink.com 1.10,2013-07-18 12:12:00,
2013-07-18 08:27:00,80.4,77.0,30.07,SW,236,4.0,8.0,90,0.00,,,0.00,weatherlink.com 1.10,2013-07-18 12:27:00,
2013-07-18 08:42:00,80.5,77.0,30.07,SSW,203,4.0,7.0,88,0.00,,,0.00,weatherlink.com 1.10,2013-07-18 12:42:00,
2013-07-18 08:57:00,81.1,77.0,30.07,SW,219,2.0,8.0,88,0.00,,,0.00,weatherlink.com 1.10,2013-07-18 12:57:00,
2013-07-18 09:13:00,82.6,77.0,30.06,SSW,194,5.0,7.0,84,0.00,,,0.00,weatherlink.com 1.10,2013-07-18 13:13:00,
2013-07-18 09:28:00,83.3,77.0,30.06,WSW,243,4.0,8.0,81,0.00,,,0.00,weatherlink.com 1.10,2013-07-18 13:28:00,
2013-07-18 09:42:00,83.7,78.0,30.06,SW,226,4.0,7.0,83,0.00,,,0.00,weatherlink.com 1.10,2013-07-18 13:42:00,
2013-07-18 09:58:00,84.6,78.0,30.06,SSW,210,7.0,7.0,80,0.00,,,0.00,weatherlink.com 1.10,2013-07-18 13:58:00,
2013-07-18 10:13:00,84.7,78.0,30.06,South,176,6.0,8.0,80,0.00,,,0.00,weatherlink.com 1.10,2013-07-18 14:13:00,
2013-07-18 10:28:00,85.4,77.0,30.06,SSW,198,7.0,7.0,77,0.00,,,0.00,weatherlink.com 1.10,2013-07-18 14:28:00,
2013-07-18 10:43:00,85.9,78.0,30.05,South,184,5.0,7.0,77,0.00,,,0.00,weatherlink.com 1.10,2013-07-18 14:43:00,
2013-07-18 10:57:00,86.1,77.0,30.05,SW,215,9.0,10.0,75,0.00,,,0.00,weatherlink.com 1.10,2013-07-18 14:57:00,
2013-07-18 11:13:00,87.1,78.0,30.05,SW,215,9.0,10.0,74,0.00,,,0.00,weatherlink.com 1.10,2013-07-18 15:13:00,
2013-07-18 11:28:00,87.1,78.0,30.05,SW,231,4.0,13.0,73,0.00,,,0.00,weatherlink.com 1.10,2013-07-18 15:28:00,
2013-07-18 11:42:00,87.3,78.0,30.05,SE,136,3.0,10.0,73,0.00,,,0.00,weatherlink.com 1.10,2013-07-18 15:42:00,
2013-07-18 11:58:00,87.5,77.0,30.04,SW,222,6.0,11.0,72,0.00,,,0.00,weatherlink.com 1.10,2013-07-18 15:58:00,
2013-07-18 12:13:00,88.1,78.0,30.04,SW,218,4.0,11.0,71,0.00,,,0.00,weatherlink.com 1.10,2013-07-18 16:13:00,
2013-07-18 12:28:00,88.4,77.0,30.03,SW,233,8.0,12.0,68,0.00,,,0.00,weatherlink.com 1.10,2013-07-18 16:28:00,
2013-07-18 12:43:00,89.1,77.0,30.03,SSW,204,6.0,14.0,68,0.00,,,0.00,weatherlink.com 1.10,2013-07-18 16:43:00,
2013-07-18 12:58:00,89.3,77.0,30.02,South,191,10.0,13.0,67,0.00,,,0.00,weatherlink.com 1.10,2013-07-18 16:58:00,
2013-07-18 13:13:00,89.3,76.0,30.02,SSW,210,7.0,15.0,65,0.00,,,0.00,weatherlink.com 1.10,2013-07-18 17:13:00,
2013-07-18 13:28:00,89.1,76.0,30.02,SW,226,6.0,16.0,66,0.00,,,0.00,weatherlink.com 1.10,2013-07-18 17:28:00,
2013-07-18 13:43:00,89.0,77.0,30.01,SW,235,9.0,17.0,67,0.00,,,0.00,weatherlink.com 1.10,2013-07-18 17:43:00,
2013-07-18 13:58:00,89.1,76.0,30.00,SSW,195,13.0,20.0,65,0.00,,,0.00,weatherlink.com 1.10,2013-07-18 17:58:00,
2013-07-18 14:13:00,88.8,75.0,30.00,SW,215,14.0,19.0,64,0.00,,,0.00,weatherlink.com 1.10,2013-07-18 18:13:00,
2013-07-18 14:28:00,89.2,76.0,30.00,South,188,5.0,16.0,65,0.00,,,0.00,weatherlink.com 1.10,2013-07-18 18:28:00,
2013-07-18 14:43:00,89.0,75.0,29.99,SW,217,16.0,17.0,64,0.00,,,0.00,weatherlink.com 1.10,2013-07-18 18:43:00,
2013-07-18 14:58:00,89.3,76.0,29.98,SSW,198,7.0,14.0,64,0.00,,,0.00,weatherlink.com 1.10,2013-07-18 18:58:00,
2013-07-18 15:13:00,89.1,77.0,29.97,SW,219,10.0,17.0,67,0.00,,,0.00,weatherlink.com 1.10,2013-07-18 19:13:00,
2013-07-18 15:28:00,88.7,76.0,29.97,SW,214,7.0,14.0,67,0.00,,,0.00,weatherlink.com 1.10,2013-07-18 19:28:00,
2013-07-18 15:43:00,88.8,75.0,29.97,SW,215,9.0,13.0,64,0.00,,,0.00,weatherlink.com 1.10,2013-07-18 19:43:00,
2013-07-18 15:58:00,88.7,75.0,29.96,SW,224,7.0,14.0,65,0.00,,,0.00,weatherlink.com 1.10,2013-07-18 19:58:00,
2013-07-18 16:13:00,88.5,75.0,29.97,SW,231,8.0,15.0,64,0.00,,,0.00,weatherlink.com 1.10,2013-07-18 20:13:00,
2013-07-18 16:28:00,88.2,75.0,29.96,SSW,209,8.0,16.0,65,0.00,,,0.00,weatherlink.com 1.10,2013-07-18 20:28:00,
2013-07-18 16:43:00,88.0,74.0,29.96,WSW,242,9.0,13.0,64,0.00,,,0.00,weatherlink.com 1.10,2013-07-18 20:43:00,
2013-07-18 16:58:00,87.3,73.0,29.95,SW,218,10.0,15.0,63,0.00,,,0.00,weatherlink.com 1.10,2013-07-18 20:58:00,
2013-07-18 17:14:00,86.9,73.0,29.95,SSW,211,8.0,15.0,64,0.00,,,0.00,weatherlink.com 1.10,2013-07-18 21:14:00,
2013-07-18 17:29:00,86.8,73.0,29.95,SW,219,7.0,14.0,64,0.00,,,0.00,weatherlink.com 1.10,2013-07-18 21:29:00,
2013-07-18 17:44:00,87.9,74.0,29.95,SSE,147,3.0,9.0,64,0.00,,,0.00,weatherlink.com 1.10,2013-07-18 21:44:00,
2013-07-18 17:59:00,87.3,74.0,29.95,South,188,4.0,13.0,65,0.00,,,0.00,weatherlink.com 1.10,2013-07-18 21:59:00,
2013-07-18 18:14:00,87.8,74.0,29.95,SW,219,6.0,10.0,64,0.00,,,0.00,weatherlink.com 1.10,2013-07-18 22:14:00,
2013-07-18 18:29:00,88.3,74.0,29.95,South,176,6.0,14.0,63,0.00,,,0.00,weatherlink.com 1.10,2013-07-18 22:29:00,
2013-07-18 18:44:00,87.3,74.0,29.95,SW,222,8.0,16.0,65,0.00,,,0.00,weatherlink.com 1.10,2013-07-18 22:44:00,
2013-07-18 18:59:00,86.2,74.0,29.94,SW,232,5.0,16.0,68,0.00,,,0.00,weatherlink.com 1.10,2013-07-18 22:59:00,
2013-07-18 19:14:00,85.2,75.0,29.94,SSW,210,8.0,16.0,71,0.00,,,0.00,weatherlink.com 1.10,2013-07-18 23:14:00,
2013-07-18 19:29:00,83.9,75.0,29.94,SW,224,6.0,15.0,74,0.00,,,0.00,weatherlink.com 1.10,2013-07-18 23:29:00,
2013-07-18 19:59:00,82.3,74.0,29.93,WSW,244,4.0,14.0,76,0.00,,,0.00,weatherlink.com 1.10,2013-07-18 23:59:00,
2013-07-18 20:14:00,81.9,74.0,29.93,WSW,239,3.0,13.0,77,0.00,,,0.00,weatherlink.com 1.10,2013-07-19 00:14:00,
2013-07-18 20:29:00,81.3,74.0,29.93,WSW,239,6.0,12.0,78,0.00,,,0.00,weatherlink.com 1.10,2013-07-19 00:29:00,
2013-07-18 20:44:00,81.2,74.0,29.93,SSW,203,6.0,14.0,78,0.00,,,0.00,weatherlink.com 1.10,2013-07-19 00:44:00,
2013-07-18 20:59:00,80.9,74.0,29.92,WSW,243,10.0,10.0,79,0.00,,,0.00,weatherlink.com 1.10,2013-07-19 00:59:00,
2013-07-18 21:14:00,80.6,74.0,29.92,SSW,203,3.0,10.0,79,0.00,,,0.00,weatherlink.com 1.10,2013-07-19 01:14:00,
2013-07-18 21:29:00,80.3,74.0,29.93,SSE,149,4.0,11.0,80,0.00,,,0.00,weatherlink.com 1.10,2013-07-19 01:29:00,
2013-07-18 21:44:00,80.0,74.0,29.93,SSW,198,3.0,11.0,82,0.00,,,0.00,weatherlink.com 1.10,2013-07-19 01:44:00,
2013-07-18 21:59:00,79.3,74.0,29.93,SSW,201,3.0,7.0,84,0.00,,,0.00,weatherlink.com 1.10,2013-07-19 01:59:00,
2013-07-18 22:14:00,78.8,74.0,29.93,SSW,201,8.0,12.0,85,0.00,,,0.00,weatherlink.com 1.10,2013-07-19 02:14:00,
2013-07-18 22:29:00,78.3,74.0,29.93,SSW,207,5.0,11.0,87,0.00,,,0.00,weatherlink.com 1.10,2013-07-19 02:29:00,
2013-07-18 22:44:00,78.2,74.0,29.93,SW,219,7.0,11.0,87,0.00,,,0.00,weatherlink.com 1.10,2013-07-19 02:44:00,
2013-07-18 22:59:00,78.2,74.0,29.93,SW,221,2.0,10.0,87,0.00,,,0.00,weatherlink.com 1.10,2013-07-19 02:59:00,
2013-07-18 23:14:00,78.2,74.0,29.93,SSW,205,7.0,10.0,86,0.00,,,0.00,weatherlink.com 1.10,2013-07-19 03:14:00,
2013-07-18 23:29:00,78.2,74.0,29.93,SW,218,9.0,11.0,86,0.00,,,0.00,weatherlink.com 1.10,2013-07-19 03:29:00,
2013-07-18 23:44:00,78.0,74.0,29.92,SW,225,5.0,11.0,86,0.00,,,0.00,weatherlink.com 1.10,2013-07-19 03:44:00,
2013-07-18 23:59:00,77.9,74.0,29.92,SW,229,8.0,10.0,87,0.00,,,0.00,weatherlink.com 1.10,2013-07-19 03:59:00,